Location: Cluj-Napoca
(46.7712°N, 23.6236°E)
Time: 11:39:09
(UTC+03:00)

ISS - Pass Details

Date: 09 May 2021
Orbit: 417 x 422 km, 51.6° (Epoch: 15 May)

Event Time Altitude Azimuth Distance (km) Brightness Sun altitude
Exits shadow 04:36:22 - 291° (WNW) 2,167 -0.4 -12.4°
Reaches altitude 10° 04:38:04 10° 298° (WNW) 1,506 -1.1 -12.2°
Maximum altitude 04:41:14 37° 8° (N) 677 -2.2 -11.8°
Drops below altitude 10° 04:44:25 10° 78° (ENE) 1,506 0.1 -11.4°
Sets 04:46:37 0° 87° (E) 2,371 1.0 -11.1°
